Manitowoc, WI

10:52 PM CST on December 12, 2019 (GMT -0600)
Manitowoc County

Weather History for KMTW - November, 2019

Change the Weather History Date:

Friday, November 15, 2019

  Actual Average Record
Temperature  
Mean Temperature 30 °F -  
Max Temperature 36 °F 43 °F 67 °F (1990)
Min Temperature 23 °F 29 °F 9 °F (1959)
Degree Days  
Heating Degree Days 36    
Moisture  
Dew Point 21 °F    
Average Humidity 73    
Maximum Humidity 88    
Minimum Humidity 52    
Precipitation  
Precipitation 0.00 in - - ()
Sea Level Pressure  
Sea Level Pressure 30.35 in    
Wind  
Wind Speed 7 mph ()    
Max Wind Speed 15 mph    
Max Gust Speed -    
Visibility 10.0 miles    
Events      
Averages and records for this station are not official NWS values.
T = Trace of Precipitation, MM = Missing Value Source: Averaged Metar Reports

Daily Weather History Graph

Daily Weather History Graph

Search for Another Location

Airport or City:

Astronomy

Nov. 15, 2019 Rise Set
Actual Time 6:45 AM CST 4:24 PM CST
Civil Twilight 6:14 AM CST 4:55 PM CST
Nautical Twilight 5:39 AM CST 5:30 PM CST
Astronomical Twilight 5:05 AM CST 6:04 PM CST
Moon 6:55 PM CST (11/15) 9:45 AM CST (11/15)
Length of Visible Light 10h 41m
Length of Day
9h 38m
Waning Gibbous, 90% of the Moon is Illuminated
Nov 15
Waning Gibbous
Nov 19
Last Quarter
Nov 26
New
Dec 4
First Quarter
Dec 11
Full

Hourly Weather History & Observations

Time (CST) Temp. Windchill Dew Point Humidity Pressure Visibility Wind Dir Wind Speed Gust Speed Precip Events Conditions
12:56 AM 27.0 °F 16.7 °F 19.9 °F 75% 30.21 in 10.0 mi West 11.5 mph - N/A   Mostly Cloudy
1:56 AM 26.1 °F 16.8 °F 19.9 °F 78% 30.22 in 10.0 mi West 9.2 mph - N/A   Clear
2:20 AM 26.6 °F 16.8 °F 21.2 °F 80% 30.20 in 10.0 mi West 10.4 mph - N/A   Mostly Cloudy
2:56 AM 28.0 °F 16.5 °F 21.0 °F 75% 30.23 in 10.0 mi West 15.0 mph - N/A   Overcast
3:56 AM 28.0 °F 17.5 °F 21.0 °F 75% 30.24 in 10.0 mi West 12.7 mph - N/A   Overcast
4:56 AM 26.1 °F 16.8 °F 19.9 °F 78% 30.26 in 10.0 mi West 9.2 mph - N/A   Partly Cloudy
5:56 AM 24.1 °F 17.0 °F 19.9 °F 84% 30.27 in 10.0 mi West 5.8 mph - N/A   Clear
6:56 AM 24.1 °F 15.2 °F 19.9 °F 84% 30.29 in 10.0 mi West 8.1 mph - N/A   Clear
7:56 AM 28.9 °F 21.9 °F 21.9 °F 75% 30.31 in 10.0 mi West 6.9 mph - N/A   Clear
8:56 AM 32.0 °F 24.2 °F 23.0 °F 69% 30.32 in 10.0 mi WNW 9.2 mph - N/A   Clear
9:56 AM 34.0 °F 25.5 °F 23.0 °F 64% 30.34 in 10.0 mi NW 11.5 mph - N/A   Clear
10:56 AM 34.0 °F 25.5 °F 21.9 °F 61% 30.35 in 10.0 mi NW 11.5 mph - N/A   Clear
11:56 AM 35.1 °F 28.6 °F 21.9 °F 59% 30.35 in 10.0 mi NNW 8.1 mph - N/A   Clear
12:56 PM 36.0 °F 29.0 °F 21.9 °F 57% 30.37 in 10.0 mi NNW 9.2 mph - N/A   Clear
1:56 PM 36.0 °F 30.3 °F 19.9 °F 52% 30.38 in 10.0 mi Variable 6.9 mph - N/A   Clear
2:56 PM 36.0 °F 30.3 °F 19.9 °F 52% 30.39 in 10.0 mi NNW 6.9 mph - N/A   Clear
3:56 PM 35.1 °F 32.2 °F 19.9 °F 54% 30.41 in 10.0 mi North 3.5 mph - N/A   Clear
4:56 PM 30.9 °F - 21.0 °F 67% 30.43 in 10.0 mi Calm Calm - N/A   Clear
5:56 PM 26.1 °F - 23.0 °F 88% 30.45 in 10.0 mi Calm Calm - N/A   Clear
6:56 PM 26.1 °F 21.9 °F 19.9 °F 78% 30.46 in 10.0 mi NW 3.5 mph - N/A   Clear
7:56 PM 23.0 °F - 19.9 °F 88% 30.47 in 10.0 mi Calm Calm - N/A   Clear
8:56 PM 23.0 °F - 19.9 °F 88% 30.48 in 10.0 mi Calm Calm - N/A   Partly Cloudy
10:39 PM 24.8 °F 20.5 °F 21.2 °F 86% 30.45 in 10.0 mi North 3.5 mph - N/A   Mostly Cloudy
10:56 PM 24.1 °F 19.7 °F 19.9 °F 84% 30.49 in 10.0 mi Variable 3.5 mph - N/A   Mostly Cloudy
11:56 PM 30.9 °F 24.3 °F 27.0 °F 85% 30.49 in 10.0 mi East 6.9 mph - N/A   Overcast